Location: Palomar Mountain Lodge
(33.3110°N, 116.8495°W)
Time: 23:38:40
(UTC-07:00)

ERS-1 Rocket - Pass Details

Date: 12 July 2018
Orbit: 753 x 758 km, 98.6° (Epoch: 15 July)

Event Time Altitude Azimuth Distance (km) Brightness Sun altitude
Exits shadow 22:06:50 50° 165° (SSE) 959 3.1 -22.1°
Maximum altitude 22:08:12 89° 73° (ENE) 760 2.9 -22.3°
Drops below altitude 10° 22:13:15 10° 348° (NNW) 2,286 6.3 -23.0°
Sets 22:15:33 0° 348° (NNW) 3,215 7.2 -23.3°
